Location: Sommers-Bausch Observatory
(40.0037°N, 105.2635°W)
Time: 23:30:28
(UTC-06:00)

Amateur Radio Satellites - All Passes

Search period start: 30 July 2016 23:00
Search period end: 31 July 2016 23:00
Location: Sommers-Bausch Observatory, 40.0037°N, 105.2635°W

Satellite Date Start Highest point End Downlink Frequencies (MHz)
Time Altitude Azimuth
AISAT 30 Jul 23:05:05 23:08:29 22° 67° (ENE) 23:11:54 437.250
AO-85 30 Jul 23:10:45 23:14:11 24° 249° (WSW) 23:17:26 145.980
Cosmos 2504 30 Jul 23:13:40 23:20:57 40° 273° (W) 23:27:46 435.465 / 435.565
TIGRISAT 30 Jul 23:17:13 23:21:49 66° 101° (E) 23:26:16 435.000
SPROUT 30 Jul 23:22:05 23:24:30 15° 64° (ENE) 23:26:54 437.525
UNISAT 6 30 Jul 23:35:01 23:39:38 74° 285° (WNW) 23:44:06 437.425
Cosmos 2491 30 Jul 23:36:25 23:42:56 23° 294° (WNW) 23:49:29 435.465 / 435.565
CUBEBUG 1 30 Jul 23:45:09 23:49:25 66° 74° (ENE) 23:53:43 437.445
HUMSAT D 30 Jul 23:51:19 23:52:59 12° 270° (W) 23:54:39 437.325/437.525
NANOSAT C BR1 30 Jul 23:52:01 23:55:26 23° 95° (E) 23:58:49 145.865
DUCHIFAT 1 30 Jul 23:54:13 23:57:37 23° 95° (E) 00:00:58 145.980
VELOX 1 30 Jul 23:54:56 23:59:17 74° 76° (ENE) 00:03:41 145.980
ESTCUBE 1 30 Jul 23:56:10 00:00:36 61° 259° (W) 00:05:03 437.505/2401.250
ISS 30 Jul 23:59:12 00:00:15 11° 5° (N) 00:01:18 145.825
ANTELSAT 31 Jul 00:13:50 00:17:48 29° 291° (WNW) 00:21:42 437.575/2403.000
QB50P1 31 Jul 00:16:24 00:20:32 46° 99° (E) 00:24:38 145.935-145.965
POPSAT HIP 1 31 Jul 00:23:13 00:27:27 54° 100° (E) 00:31:37 437.405
DX 1 31 Jul 00:25:03 00:29:21 69° 258° (WSW) 00:33:41 434.975-435.025
GONETS M04 31 Jul 00:25:23 00:28:21 12° 57° (ENE) 00:31:19
JAS-2 31 Jul 00:25:44 00:29:51 21° 95° (E) 00:34:14 435.910
UKube-1 31 Jul 00:30:39 00:34:56 77° 256° (WSW) 00:39:16 .
50 SAT 31 Jul 00:31:57 00:35:15 32° 262° (W) 00:38:34 437.505
AIST 1 31 Jul 00:37:53 00:42:15 74° 264° (W) 00:46:37
AISAT 31 Jul 00:40:50 00:44:46 32° 263° (W) 00:48:43 437.250
QB50P2 31 Jul 00:45:14 00:49:31 76° 285° (WNW) 00:53:47 145.880/145.840
POLYITAN 1 31 Jul 00:47:52 00:52:10 75° 284° (WNW) 00:56:25 437.675
TIGRISAT 31 Jul 00:55:52 00:57:52 13° 298° (WNW) 00:59:52 435.000
SPROUT 31 Jul 00:55:52 01:00:00 49° 260° (W) 01:04:12 437.525
Oscar 19 31 Jul 01:06:09 01:07:28 11° 89° (E) 01:08:47 437.125/150
ITUPSAT 1 31 Jul 01:13:38 01:15:40 13° 61° (ENE) 01:17:41 437.325
CUBEBUG 1 31 Jul 01:25:48 01:26:07 10° 270° (W) 01:26:27 437.445
BUGSAT 1 31 Jul 01:25:55 01:30:10 73° 285° (WNW) 01:34:24 437.445
NANOSAT C BR1 31 Jul 01:27:27 01:31:08 29° 291° (WNW) 01:34:48 145.865
DUCHIFAT 1 31 Jul 01:29:36 01:33:17 29° 291° (WNW) 01:36:57 145.980
ISS 31 Jul 01:34:52 01:37:36 24° 25° (NNE) 01:40:19 145.825
TISAT 1 31 Jul 01:35:31 01:39:42 77° 258° (WSW) 01:43:57 437.305
QB50P1 31 Jul 01:53:23 01:55:55 16° 295° (WNW) 01:58:27 145.935-145.965
BEESAT 3 31 Jul 01:59:15 02:02:39 26° 50° (NE) 02:06:01 437.485
Cosmos 2499 31 Jul 01:59:56 02:06:44 33° 71° (ENE) 02:13:07 435.465 / 435.565
POPSAT HIP 1 31 Jul 02:00:38 02:02:45 14° 296° (WNW) 02:04:50 437.405
SWISSCUBE 31 Jul 02:01:30 02:05:59 42° 71° (ENE) 02:10:29 437.505
PCSat 31 Jul 02:09:25 02:11:17 12° 38° (NE) 02:13:10 145.827
JAS-2 31 Jul 02:09:56 02:15:08 49° 288° (WNW) 02:20:49 435.910
BEESAT 2 31 Jul 02:14:12 02:17:20 21° 48° (NE) 02:20:27 435.950
GONETS M04 31 Jul 02:18:23 02:27:10 64° 79° (E) 02:35:55
BEESAT 31 Jul 02:22:06 02:26:48 61° 73° (ENE) 02:31:33 436.000
CUSAT 1 31 Jul 02:40:10 02:41:56 13° 95° (E) 02:43:33 437.405
Oscar 19 31 Jul 02:42:10 02:47:22 83° 285° (WNW) 02:52:34 437.125/150
ITUPSAT 1 31 Jul 02:48:04 02:52:51 74° 257° (WSW) 02:57:40 437.325
ITAMSAT 1 31 Jul 02:48:26 02:51:27 15° 91° (E) 02:54:25 435.822/435.867
Gurwin Techsat 1B 31 Jul 02:57:34 03:02:51 62° 101° (E) 03:08:06 435.225
KKS-1 31 Jul 02:57:41 03:00:25 16° 64° (ENE) 03:03:11 437.445
ISS 31 Jul 03:11:01 03:14:11 47° 222° (SW) 03:17:19 145.825
STARS 31 Jul 03:24:34 03:27:11 16° 64° (ENE) 03:29:47 437.465
BEESAT 3 31 Jul 03:36:54 03:40:15 26° 247° (WSW) 03:43:35 437.485
SWISSCUBE 31 Jul 03:40:27 03:43:56 20° 266° (W) 03:47:25 437.505
DANDE 31 Jul 03:41:00 03:45:35 32° 97° (E) 03:49:10 436.750
PCSat 31 Jul 03:50:24 03:55:48 63° 59° (ENE) 04:01:10 145.827
BEESAT 2 31 Jul 03:51:35 03:55:15 35° 245° (WSW) 03:58:54 435.950
Cosmos 2499 31 Jul 03:52:51 03:59:59 44° 272° (W) 04:06:42 435.465 / 435.565
MOZHAYETS 4 31 Jul 04:01:36 04:06:13 82° 77° (ENE) 04:10:52
BEESAT 31 Jul 04:02:40 04:04:58 13° 269° (W) 04:07:17 436.000
GONETS M04 31 Jul 04:16:20 04:23:15 27° 278° (W) 04:30:11
CUSAT 1 31 Jul 04:20:52 04:23:49 22° 282° (WNW) 04:26:19 437.405
Oscar 19 31 Jul 04:24:51 04:25:51 11° 302° (WNW) 04:26:50 437.125/150
ITAMSAT 1 31 Jul 04:26:11 04:31:19 61° 287° (WNW) 04:36:24 435.822/435.867
KKS-1 31 Jul 04:32:19 04:36:35 47° 260° (W) 04:40:55 437.445
AO-7 31 Jul 04:34:56 04:43:12 60° 104° (ESE) 04:51:21 29.400- 29.500
Gurwin Techsat 1B 31 Jul 04:38:52 04:42:16 18° 298° (WNW) 04:45:40 435.225
AIST 2 31 Jul 04:51:09 04:55:09 43° 53° (NE) 04:59:08 435.215
STARS 31 Jul 04:58:51 05:03:06 49° 260° (W) 05:07:25 437.465
RS-15 31 Jul 05:18:11 05:27:53 34° 104° (ESE) 05:37:58 29.354- 29.394
DANDE 31 Jul 05:24:46 05:28:14 19° 283° (WNW) 05:31:07 436.750
CUBESAT XI-V 31 Jul 05:33:00 05:37:37 89° 256° (WSW) 05:42:15 437.345
PCSat 31 Jul 05:35:13 05:38:38 17° 256° (WSW) 05:42:02 145.827
O/OREOS (USA 219) 31 Jul 05:46:38 05:51:06 53° 65° (ENE) 05:55:34 437.305
HORYU 2 31 Jul 05:47:40 05:52:03 52° 100° (E) 05:56:23 437.375
SO-50 31 Jul 06:09:40 06:12:18 15° 108° (ESE) 06:14:56 436.795
NOAA 18 31 Jul 06:12:22 06:15:40 16° 92° (E) 06:18:57 137.9125
Cubesat XI-IV 31 Jul 06:16:00 06:19:29 17° 92° (E) 06:22:58 437.490
BRITE-PL 31 Jul 06:26:32 06:31:18 42° 98° (E) 06:36:24 437.365/2234.400
AO-7 31 Jul 06:28:24 06:35:28 32° 302° (WNW) 06:42:30 29.400- 29.500
AIST 2 31 Jul 06:30:32 06:33:18 17° 250° (WSW) 06:36:03 435.215
CUTE-I 31 Jul 06:37:23 06:41:56 28° 95° (E) 06:46:27 437.470
DOVE 4 31 Jul 06:38:33 06:40:34 12° 89° (E) 06:42:37 437.250
LilacSat-2 31 Jul 06:41:29 06:44:47 26° 96° (E) 06:48:03 437.200
NOAA 15 31 Jul 06:42:23 06:47:23 41° 99° (E) 06:52:21 137.62
GOMX 1 31 Jul 07:05:41 07:10:45 48° 99° (E) 07:15:59 467.674
STRAND 1 31 Jul 07:12:59 07:18:03 62° 73° (ENE) 07:23:08 437.568
HORYU 2 31 Jul 07:25:37 07:28:09 15° 297° (WNW) 07:30:41 437.375
O/OREOS (USA 219) 31 Jul 07:27:41 07:30:00 14° 261° (W) 07:32:21 437.305
RS-15 31 Jul 07:27:54 07:39:21 70° 306° (NW) 07:51:31 29.354- 29.394
SO-50 31 Jul 07:47:23 07:52:15 67° 304° (NW) 07:57:05 436.795
Cosmos 2491 31 Jul 07:48:01 07:55:55 36° 72° (ENE) 08:03:48 435.465 / 435.565
NOAA 18 31 Jul 07:51:17 07:56:47 65° 287° (WNW) 08:02:13 137.9125
CINEMA 3 31 Jul 07:53:06 07:56:42 20° 92° (E) 08:00:14 145.822/145.860
CANX-2 31 Jul 07:54:10 07:56:29 14° 92° (E) 07:58:48 2200.000
Cubesat XI-IV 31 Jul 07:54:41 07:59:55 57° 288° (WNW) 08:05:06 437.490
PRISM 31 Jul 08:03:34 08:06:46 23° 68° (ENE) 08:09:59 437.425
BRITE-PL 31 Jul 08:05:39 08:09:33 23° 292° (WNW) 08:13:41 437.365/2234.400
CUTE 1.7 + AOD 2 31 Jul 08:06:16 08:09:04 17° 93° (E) 08:11:51 437.475
DOVE 4 31 Jul 08:13:30 08:18:45 80° 284° (WNW) 08:24:04 437.250
LilacSat-2 31 Jul 08:16:03 08:18:55 20° 292° (WNW) 08:21:46 437.200
CUTE-I 31 Jul 08:17:10 08:21:59 35° 292° (WNW) 08:26:46 437.470
NOAA 15 31 Jul 08:22:42 08:26:53 25° 295° (WNW) 08:31:05 137.62
CUBEBUG 2 31 Jul 08:30:41 08:32:40 13° 89° (E) 08:34:38 437.445
SEEDS 31 Jul 08:36:21 08:39:53 26° 96° (E) 08:43:23 437.485
COMPASS 1 31 Jul 08:39:50 08:42:54 20° 94° (E) 08:45:56 437.405
GOMX 1 31 Jul 08:44:35 08:48:29 22° 293° (WNW) 08:52:31 467.674
STRAND 1 31 Jul 08:54:43 08:57:37 15° 269° (W) 09:00:33 437.568
HO-68 31 Jul 08:56:04 09:03:13 63° 103° (ESE) 09:10:19 435.675
AAUSAT CUBESAT 2 31 Jul 09:03:05 09:06:41 28° 96° (E) 09:10:15 437.432
YUBILEINY 31 Jul 09:13:15 09:21:39 53° 89° (E) 09:30:07 435.215
FUNcube-1 31 Jul 09:20:41 09:23:35 17° 92° (E) 09:26:25 145.935
ZACube-1 31 Jul 09:23:57 09:27:14 20° 93° (E) 09:30:25 437.345
CANX-2 31 Jul 09:28:33 09:32:34 44° 287° (WNW) 09:36:33 2200.000
CINEMA 3 31 Jul 09:29:13 09:34:02 46° 288° (WNW) 09:38:44 145.822/145.860
SO-50 31 Jul 09:31:48 09:33:38 12° 323° (NW) 09:35:28 436.795
UWE-3 31 Jul 09:33:14 09:37:32 40° 97° (E) 09:41:42 435.000/436.395/437.385
ANTELSAT 31 Jul 09:35:27 09:39:04 23° 67° (ENE) 09:42:42 437.575/2403.000
PRISM 31 Jul 09:38:30 09:41:57 26° 263° (W) 09:45:25 437.425
CUTE 1.7 + AOD 2 31 Jul 09:41:09 09:45:02 37° 288° (WNW) 09:48:53 437.475
Cosmos 2491 31 Jul 09:44:38 09:52:55 49° 271° (W) 10:01:14 435.465 / 435.565
RS-15 31 Jul 09:45:06 09:54:39 27° 335° (NNW) 10:04:34 29.354- 29.394
DOVE 4 31 Jul 09:54:31 09:55:36 11° 300° (WNW) 09:56:42 437.250
Oscar 11 31 Jul 09:55:40 09:59:48 45° 99° (E) 10:03:55 145.826/435.025
Cosmos 2504 31 Jul 09:56:35 10:04:19 35° 85° (E) 10:11:57 435.465 / 435.565
M-CUBED/EXP-1 PRIME 31 Jul 10:01:50 10:03:33 12° 94° (E) 10:05:15 437.505
CUBEBUG 2 31 Jul 10:05:05 10:09:43 61° 286° (WNW) 10:14:11 437.445
SEEDS 31 Jul 10:12:07 10:15:29 24° 291° (WNW) 10:18:48 437.485
TIGRISAT 31 Jul 10:14:37 10:19:08 53° 73° (ENE) 10:23:44 435.000
COMPASS 1 31 Jul 10:14:50 10:18:29 31° 290° (WNW) 10:22:07 437.405
DELFI C3 31 Jul 10:21:34 10:25:13 36° 98° (E) 10:28:52 145.870
AUBIESAT-1 31 Jul 10:22:47 10:25:43 16° 96° (E) 10:28:35 437.475
UNISAT 6 31 Jul 10:32:26 10:37:07 87° 72° (ENE) 10:41:51 437.425
AAUSAT CUBESAT 2 31 Jul 10:38:51 10:42:00 22° 292° (WNW) 10:45:09 437.432
NANOSAT C BR1 31 Jul 10:44:11 10:46:54 17° 65° (ENE) 10:49:37 145.865
HO-68 31 Jul 10:44:43 10:50:23 26° 300° (WNW) 10:56:03 435.675
DUCHIFAT 1 31 Jul 10:46:11 10:48:50 16° 65° (ENE) 10:51:29 145.980
FUNcube-1 31 Jul 10:55:51 11:00:01 40° 288° (WNW) 11:04:04 145.935
ZACube-1 31 Jul 10:59:33 11:03:36 35° 290° (WNW) 11:07:33 437.345
QB50P1 31 Jul 11:08:11 11:11:57 31° 70° (ENE) 11:15:45 145.935-145.965
UWE-3 31 Jul 11:10:25 11:13:40 19° 294° (WNW) 11:16:50 435.000/436.395/437.385
YUBILEINY 31 Jul 11:10:58 11:18:43 34° 289° (WNW) 11:26:35 435.215
ANTELSAT 31 Jul 11:11:13 11:15:31 37° 263° (W) 11:19:54 437.575/2403.000
POPSAT HIP 1 31 Jul 11:14:55 11:18:51 37° 71° (ENE) 11:22:47 437.405
HUMSAT D 31 Jul 11:32:24 11:36:34 68° 284° (WNW) 11:40:38 437.325/437.525
Oscar 11 31 Jul 11:32:57 11:35:33 16° 295° (WNW) 11:38:09 145.826/435.025
M-CUBED/EXP-1 PRIME 31 Jul 11:33:46 11:38:30 73° 290° (WNW) 11:43:07 437.505
CUBEBUG 1 31 Jul 11:36:04 11:38:07 13° 91° (E) 11:40:10 437.445
QB50P2 31 Jul 11:36:44 11:40:58 72° 75° (ENE) 11:45:16 145.880/145.840
POLYITAN 1 31 Jul 11:39:21 11:43:36 74° 75° (ENE) 11:47:54 437.675
AO-85 31 Jul 11:44:31 11:47:32 15° 108° (ESE) 11:50:30 145.980
VELOX 1 31 Jul 11:47:02 11:49:34 15° 92° (E) 11:52:04 145.980
Cosmos 2504 31 Jul 11:48:44 11:57:20 52° 283° (WNW) 12:05:51 435.465 / 435.565
ESTCUBE 1 31 Jul 11:49:33 11:53:26 28° 96° (E) 11:57:18 437.505/2401.250
TIGRISAT 31 Jul 11:53:27 11:56:08 15° 269° (W) 11:58:49 435.000
AUBIESAT-1 31 Jul 11:55:53 12:00:24 51° 292° (WNW) 12:04:49 437.475
DELFI C3 31 Jul 11:57:19 11:59:47 16° 293° (WNW) 12:02:14 145.870
50 SAT 31 Jul 12:01:29 12:04:06 19° 95° (E) 12:06:43 437.505
RS-15 31 Jul 12:04:15 12:13:07 22° 12° (NNE) 12:22:03 29.354- 29.394
DX 1 31 Jul 12:14:31 12:17:50 21° 95° (E) 12:21:08 434.975-435.025
BUGSAT 1 31 Jul 12:14:35 12:18:39 69° 75° (ENE) 12:22:49 437.445
NANOSAT C BR1 31 Jul 12:18:15 12:22:16 42° 261° (W) 12:26:20 145.865
UKube-1 31 Jul 12:19:18 12:22:18 18° 94° (E) 12:25:18 .
DUCHIFAT 1 31 Jul 12:20:08 12:24:09 42° 261° (W) 12:28:14 145.980
JAS-2 31 Jul 12:21:24 12:27:12 63° 73° (ENE) 12:32:29 435.910
Oscar 19 31 Jul 12:21:31 12:24:40 17° 62° (ENE) 12:27:51 437.125/150
AISAT 31 Jul 12:31:00 12:35:20 47° 100° (E) 12:39:38 437.250
Gurwin Techsat 1B 31 Jul 12:42:07 12:44:06 12° 59° (ENE) 12:46:06 435.225
SPROUT 31 Jul 12:42:37 12:46:22 28° 96° (E) 12:50:06 437.525
QB50P1 31 Jul 12:44:31 12:47:45 21° 266° (W) 12:51:01 145.935-145.965
POPSAT HIP 1 31 Jul 12:51:49 12:54:44 18° 267° (W) 12:57:41 437.405
AIST 1 31 Jul 13:06:14 13:10:25 67° 96° (E) 13:14:41
CUBEBUG 1 31 Jul 13:10:23 13:14:42 55° 286° (WNW) 13:19:01 437.445
TISAT 1 31 Jul 13:21:06 13:23:55 17° 93° (E) 13:26:43 437.305
VELOX 1 31 Jul 13:21:58 13:26:16 49° 288° (WNW) 13:30:34 145.980
AO-85 31 Jul 13:22:07 13:27:30 74° 303° (WNW) 13:32:39 145.980
ESTCUBE 1 31 Jul 13:26:25 13:30:08 26° 292° (WNW) 13:33:51 437.505/2401.250
GONETS M04 31 Jul 13:28:18 13:31:38 13° 74° (ENE) 13:34:57
50 SAT 31 Jul 13:34:45 13:37:42 24° 290° (WNW) 13:40:37 437.505
AO-7 31 Jul 13:44:44 13:49:42 17° 49° (NE) 13:54:40 29.400- 29.500
DX 1 31 Jul 13:50:07 13:54:04 34° 290° (WNW) 13:58:01 434.975-435.025
UKube-1 31 Jul 13:54:27 13:58:27 37° 290° (WNW) 14:02:27 .
Oscar 19 31 Jul 13:58:26 14:03:28 61° 259° (WSW) 14:08:34 437.125/150
SWISSCUBE 31 Jul 14:05:02 14:06:03 11° 90° (E) 14:07:04 437.505
ITAMSAT 1 31 Jul 14:05:23 14:09:28 24° 65° (ENE) 14:13:34 435.822/435.867
AISAT 31 Jul 14:08:37 14:11:24 17° 295° (WNW) 14:14:11 437.250
JAS-2 31 Jul 14:09:15 14:12:37 16° 267° (W) 14:15:50 435.910
Gurwin Techsat 1B 31 Jul 14:17:56 14:23:15 90° 263° (W) 14:28:37 435.225
RS-15 31 Jul 14:18:15 14:30:00 46° 44° (NE) 14:41:38 29.354- 29.394
SPROUT 31 Jul 14:18:42 14:22:11 24° 292° (WNW) 14:25:38 437.525
DANDE 31 Jul 14:20:25 14:21:11 11° 75° (ENE) 14:21:59 436.750
BEESAT 31 Jul 14:24:07 14:27:05 16° 92° (E) 14:30:00 436.000
Cosmos 2499 31 Jul 14:34:47 14:42:08 30° 84° (E) 14:49:16 435.465 / 435.565
SO-50 31 Jul 14:40:42 14:43:08 14° 39° (NE) 14:45:32 436.795
ITUPSAT 1 31 Jul 14:49:35 14:53:44 29° 96° (E) 14:57:51 437.325
CUSAT 1 31 Jul 14:51:25 14:54:42 53° 262° (W) 14:58:56 437.405
TISAT 1 31 Jul 14:55:44 14:59:42 38° 289° (WNW) 15:03:38 437.305
AO-85 31 Jul 15:06:06 15:08:47 14° 321° (NW) 15:11:24 145.980
GONETS M04 31 Jul 15:18:10 15:26:47 75° 94° (E) 15:35:31
PHONESAT 2.4 31 Jul 15:19:40 15:22:29 34° 157° (SSE) 15:25:18 2401.200-2431.200
AO-7 31 Jul 15:32:46 15:41:05 75° 69° (ENE) 15:49:28 29.400- 29.500
SWISSCUBE 31 Jul 15:39:36 15:44:21 74° 285° (WNW) 15:49:05 437.505
ITAMSAT 1 31 Jul 15:43:43 15:48:39 42° 261° (W) 15:53:37 435.822/435.867
MOZHAYETS 4 31 Jul 15:58:09 16:01:30 20° 93° (E) 16:04:49
BEESAT 31 Jul 16:00:32 16:05:08 50° 288° (WNW) 16:09:43 436.000
DANDE 31 Jul 16:01:44 16:03:51 19° 264° (W) 16:06:13 436.750
SO-50 31 Jul 16:19:40 16:24:18 90° 255° (WSW) 16:28:47 436.795
KKS-1 31 Jul 16:23:53 16:27:57 33° 97° (E) 16:31:59 437.445
Cosmos 2499 31 Jul 16:26:02 16:34:44 59° 282° (WNW) 16:43:12 435.465 / 435.565
ITUPSAT 1 31 Jul 16:27:26 16:31:29 28° 292° (WNW) 16:35:32 437.325
RS-15 31 Jul 16:30:59 16:43:01 61° 247° (WSW) 16:54:50 29.354- 29.394
HORYU 2 31 Jul 16:44:48 16:49:03 45° 72° (ENE) 16:53:21 437.375
STARS 31 Jul 16:48:59 16:52:54 30° 97° (E) 16:56:48 437.465
PHONESAT 2.4 31 Jul 16:55:46 16:58:50 86° 360° (N) 17:01:55 2401.200-2431.200
GONETS M04 31 Jul 17:17:58 17:24:30 23° 294° (WNW) 17:31:07
LilacSat-2 31 Jul 17:24:06 17:26:03 14° 66° (ENE) 17:28:01 437.200
BEESAT 3 31 Jul 17:26:01 17:29:49 55° 119° (ESE) 17:33:42 437.485
AO-7 31 Jul 17:28:21 17:34:33 23° 267° (W) 17:40:49 29.400- 29.500
CUBESAT XI-V 31 Jul 17:30:44 17:34:26 23° 94° (E) 17:38:08 437.345
MOZHAYETS 4 31 Jul 17:34:34 17:38:47 37° 289° (WNW) 17:42:58
Cubesat XI-IV 31 Jul 17:36:58 17:41:29 28° 66° (ENE) 17:46:01 437.490
NOAA 18 31 Jul 17:37:20 17:42:05 30° 66° (ENE) 17:46:51 137.9125
BRITE-PL 31 Jul 17:37:44 17:41:33 37° 71° (ENE) 17:45:28 437.365/2234.400
BEESAT 2 31 Jul 17:42:24 17:46:08 43° 116° (ESE) 17:49:55 435.950
CUTE-I 31 Jul 17:58:18 18:03:22 44° 70° (ENE) 18:08:27 437.470
KKS-1 31 Jul 18:00:48 18:04:19 23° 293° (WNW) 18:07:50 437.445
NOAA 15 31 Jul 18:01:44 18:06:53 63° 73° (ENE) 18:12:05 137.62
GOMX 1 31 Jul 18:13:51 18:17:49 41° 72° (ENE) 18:21:59 467.674
HORYU 2 31 Jul 18:22:59 18:25:49 16° 267° (W) 18:28:40 437.375
STARS 31 Jul 18:25:32 18:29:07 24° 293° (WNW) 18:32:42 437.465
Cosmos 2499 31 Jul 18:27:44 18:29:46 11° 303° (WNW) 18:31:45 435.465 / 435.565
PCSat 31 Jul 18:31:06 18:36:27 67° 115° (ESE) 18:41:51 145.827
PHONESAT 2.4 31 Jul 18:32:17 18:35:22 85° 195° (SSW) 18:38:27 2401.200-2431.200
CANX-2 31 Jul 18:48:11 18:49:00 10° 63° (ENE) 18:49:49 2200.000
RS-15 31 Jul 18:49:35 18:52:46 11° 267° (W) 18:55:56 29.354- 29.394
CINEMA 3 31 Jul 18:54:37 18:57:30 16° 63° (ENE) 19:00:25 145.822/145.860
LilacSat-2 31 Jul 18:56:16 18:59:57 43° 261° (W) 19:03:42 437.200
CUTE 1.7 + AOD 2 31 Jul 18:59:32 19:01:19 12° 64° (ENE) 19:03:07 437.475
BEESAT 3 31 Jul 19:05:28 19:07:50 15° 316° (NW) 19:10:13 437.485
CUBESAT XI-V 31 Jul 19:07:43 19:11:50 33° 290° (WNW) 19:15:57 437.345
Cubesat XI-IV 31 Jul 19:16:27 19:21:23 37° 263° (W) 19:26:21 437.490
NOAA 18 31 Jul 19:17:31 19:22:35 37° 262° (W) 19:27:42 137.9125
BRITE-PL 31 Jul 19:17:43 19:20:16 16° 268° (W) 19:22:51 437.365/2234.400
DOVE 4 31 Jul 19:18:23 19:22:44 87° 257° (WSW) 19:27:25 437.250
BEESAT 2 31 Jul 19:21:21 19:24:09 18° 314° (NW) 19:27:00 435.950
HO-68 31 Jul 19:23:49 19:30:31 44° 66° (ENE) 19:37:14 435.675
YUBILEINY 31 Jul 19:24:48 19:31:45 25° 66° (ENE) 19:38:37 435.215
STRAND 1 31 Jul 19:24:57 19:28:51 22° 94° (E) 19:32:43 437.568
SEEDS 31 Jul 19:28:02 19:30:53 18° 67° (ENE) 19:33:46 437.485
CUBEBUG 2 31 Jul 19:29:05 19:30:25 11° 61° (ENE) 19:31:45 437.445
COMPASS 1 31 Jul 19:31:05 19:33:08 13° 65° (ENE) 19:35:09 437.405
CUTE-I 31 Jul 19:39:23 19:43:35 23° 266° (W) 19:47:48 437.470
NOAA 15 31 Jul 19:44:06 19:47:05 15° 269° (W) 19:50:04 137.62
ISS 31 Jul 19:49:34 19:52:48 73° 140° (SE) 19:56:03 145.825
AAUSAT CUBESAT 2 31 Jul 19:53:16 19:56:09 19° 67° (ENE) 19:59:03 437.432
GOMX 1 31 Jul 19:53:35 19:56:11 16° 269° (W) 19:58:52 467.674
O/OREOS (USA 219) 31 Jul 19:58:04 20:02:30 73° 109° (ESE) 20:06:59 437.305
PHONESAT 2.4 31 Jul 20:08:59 20:11:39 27° 206° (SSW) 20:14:19 2401.200-2431.200
FUNcube-1 31 Jul 20:16:06 20:18:30 14° 64° (ENE) 20:20:54 145.935
PCSat 31 Jul 20:16:24 20:20:21 20° 314° (NW) 20:24:18 145.827
AO-85 31 Jul 20:16:55 20:18:20 11° 36° (NE) 20:19:44 145.980
ZACube-1 31 Jul 20:19:27 20:22:18 17° 65° (ENE) 20:25:09 437.345
CANX-2 31 Jul 20:19:59 20:24:15 71° 259° (WSW) 20:28:32 2200.000
AIST 2 31 Jul 20:25:52 20:29:57 71° 303° (WNW) 20:34:05 435.215
UWE-3 31 Jul 20:29:13 20:33:16 31° 70° (ENE) 20:37:23 435.000/436.395/437.385
CINEMA 3 31 Jul 20:29:37 20:34:06 54° 261° (W) 20:38:49 145.822/145.860
CUTE 1.7 + AOD 2 31 Jul 20:32:27 20:36:40 59° 260° (W) 20:40:52 437.475
M-CUBED/EXP-1 PRIME 31 Jul 20:47:51 20:49:31 12° 56° (NE) 20:51:14 437.505
Cosmos 2491 31 Jul 20:48:27 20:56:24 42° 87° (E) 21:04:22 435.465 / 435.565
Oscar 11 31 Jul 20:49:43 20:53:35 32° 70° (ENE) 20:57:27 145.826/435.025
CUBEBUG 2 31 Jul 21:01:39 21:06:17 82° 256° (WSW) 21:11:03 437.445
SEEDS 31 Jul 21:02:24 21:06:19 37° 263° (W) 21:10:14 437.485
STRAND 1 31 Jul 21:03:22 21:08:11 42° 290° (WNW) 21:12:57 437.568
COMPASS 1 31 Jul 21:04:11 21:08:14 51° 260° (W) 21:12:19 437.405
DELFI C3 31 Jul 21:07:21 21:10:17 20° 68° (ENE) 21:13:13 145.870
AUBIESAT-1 31 Jul 21:08:17 21:10:54 17° 59° (ENE) 21:13:38 437.475
HO-68 31 Jul 21:11:49 21:18:16 36° 263° (W) 21:24:47 435.675
PRISM 31 Jul 21:19:54 21:23:46 39° 99° (E) 21:27:38 437.425
YUBILEINY 31 Jul 21:20:34 21:29:21 71° 267° (W) 21:38:03 435.215
ISS 31 Jul 21:27:04 21:29:32 19° 338° (NNW) 21:31:59 145.825
AAUSAT CUBESAT 2 31 Jul 21:27:35 21:31:23 34° 263° (W) 21:35:11 437.432
O/OREOS (USA 219) 31 Jul 21:40:37 21:42:27 12° 308° (NW) 21:44:18 437.305
Cosmos 2504 31 Jul 21:42:50 21:50:44 59° 78° (ENE) 21:58:02 435.465 / 435.565
FUNcube-1 31 Jul 21:49:43 21:54:12 59° 260° (W) 21:58:45 145.935
ZACube-1 31 Jul 21:53:43 21:58:08 50° 261° (W) 22:02:38 437.345
AO-85 31 Jul 21:55:17 21:59:40 79° 58° (ENE) 22:03:40 145.980
UWE-3 31 Jul 22:05:53 22:09:42 25° 265° (W) 22:13:35 435.000/436.395/437.385
TIGRISAT 31 Jul 22:09:19 22:10:51 11° 89° (E) 22:12:23 435.000
M-CUBED/EXP-1 PRIME 31 Jul 22:19:33 22:23:24 63° 254° (WSW) 22:27:36 437.505
HUMSAT D 31 Jul 22:22:18 22:26:36 74° 76° (ENE) 22:30:54 437.325/437.525
UNISAT 6 31 Jul 22:25:59 22:29:17 19° 93° (E) 22:32:31 437.425
Oscar 11 31 Jul 22:26:25 22:29:44 21° 266° (W) 22:33:04 145.826/435.025
CUBEBUG 1 31 Jul 22:33:04 22:33:56 11° 62° (ENE) 22:34:47 437.445
AUBIESAT-1 31 Jul 22:41:13 22:44:57 43° 257° (WSW) 22:49:00 437.475
DELFI C3 31 Jul 22:41:30 22:44:57 28° 264° (W) 22:48:25 145.870
VELOX 1 31 Jul 22:44:38 22:46:37 13° 63° (ENE) 22:48:36 145.980
ESTCUBE 1 31 Jul 22:48:39 22:52:17 25° 68° (ENE) 22:55:55 437.505/2401.250
